Dewpoint
28 29 29 30 31 31 31 30 26 19 23 28 30 30 29 28 31 26 26 33 34 35 36 37 38 39 40 41 41 42 43 43 44 45 46 47 48 48
27 27 27 28 29 30 30 30 30 27 21 28 29 29 28 25 27 26 27 30 31 33 35 35 37 37 38 38 39 40 41 42 43 44 45 46 47 47
23 24 25 26 27 28 29 29 29 29 26 28 29 28 26 25 25 27 27 26 26 30 32 34 34 35 36 37 38 39 39 40 40 41 42 42 43 44
20 21 22 20 23 23 25 26 26 27 27 25 26 26 25 25 26 26 25 24 23 26 31 32 33 34 36 36 36 37 37 38 38 38 39 40 41 42
23 23 23 23 23 24 23 24 25 24 26 24 24 26 26 27 26 26 23 23 22 27 29 30 32 34 34 34 34 35 35 35 36 37 38 39 40 41
23 24 24 24 23 23 23 24 24 25 25 25 25 25 26 27 27 23 22 24 25 25 27 28 30 30 30 31 32 31 32 34 35 36 36 37 38 39
23 22 24 25 26 27 26 27 26 26 26 25 25 25 24 24 22 23 23 25 25 27 26 23 23 23 25 27 27 29 31 33 34 35 35 37 38 38
22 22 21 22 23 25 26 26 27 27 26 26 24 24 24 23 23 24 24 24 21 27 24 22 23 23 23 23 27 29 30 31 32 35 35 35 35 34
22 21 18 17 25 23 24 24 25 25 25 25 25 24 22 23 24 25 25 24 23 24 22 20 22 20 22 20 24 27 30 32 32 32 32 31 31 31
23 21 19 19 23 24 25 24 25 25 26 25 26 26 26 26 27 26 26 23 22 21 22 18 20 20 19 18 24 28 28 29 27 27 28 28 29 29
24 23 21 21 22 25 25 25 25 25 25 25 25 26 27 27 27 24 21 19 17 17 18 19 18 15 15 16 20 23 23 23 25 26 26 26 27 29
23 23 25 23 24 26 25 25 24 22 22 22 24 23 22 21 23 22 21 18 16 13 20 11 11 13 8 11 15 16 17 21 23 23 24 25 26 24
23 23 22 25 24 25 25 25 24 23 25 22 20 18 18 19 20 18 16 13 11 9 10 13 12 11 11 10 10 13 16 15 16 17 21 22 25 25
22 24 25 25 24 24 24 24 24 22 20 18 15 14 13 12 12 11 12 13 13 12 12 14 13 13 13 13 11 10 14 15 14 13 16 20 23 24
25 23 25 26 25 25 24 22 20 16 14 12 12 11 11 10 9 9 9 9 11 12 10 12 13 12 12 13 13 14 13 11 14 16 15 16 18 19
28 28 26 26 26 23 21 19 19 15 12 11 11 11 11 9 6 7 8 8 8 9 8 10 11 11 11 11 11 14 13 13 15 17 16 17 17 17
22 22 26 26 21 17 14 12 13 14 16 15 13 10 9 6 6 9 7 7 6 6 6 8 9 10 11 11 12 12 12 14 15 16 15 16 16 16
25 20 23 21 20 17 15 12 10 14 12 12 12 12 11 8 8 8 7 6 5 5 6 7 8 9 11 10 13 12 12 12 14 14 14 15 17 17
25 18 20 20 19 15 13 11 11 10 5 10 11 10 10 10 10 9 7 6 5 6 5 5 6 7 7 5 7 14 12 12 12 13 14 15 16 17
27 21 18 16 14 15 11 8 6 5 7 8 8 8 8 9 9 9 9 8 10 8 5 6 6 7 8 8 9 11 14 12 13 14 15 16 17 20
24 20 18 16 15 13 10 8 8 7 7 7 7 6 6 7 7 7 7 10 11 7 6 6 8 14 11 11 10 12 12 14 14 12 14 16 16 18
21 18 17 17 15 13 10 9 8 13 10 6 7 7 6 6 6 6 6 6 7 7 6 7 10 11 10 8 7 8 10 11 13 15 16 17 17 14
20 19 17 17 15 13 11 10 10 11 9 7 7 7 5 6 6 7 7 5 4 5 6 6 9 10 7 7 8 7 7 9 11 12 13 15 17 18
Lifted_Index
20 20 20 20 19 19 19 18 17 15 15 16 17 18 19 19 19 19 19 19 19 19 19 19 19 19 19 18 18 18 18 17 17 16 16 15 14 14
20 20 20 20 20 19 19 19 18 16 15 17 18 19 19 19 19 19 19 19 19 19 19 19 19 19 19 19 19 18 18 18 17 17 16 16 15 15
20 20 20 20 20 20 20 19 18 17 16 17 18 19 19 19 19 19 19 19 20 20 20 20 20 20 20 19 19 19 18 18 17 17 17 16 16 16
19 19 20 20 20 20 20 19 18 17 17 17 18 19 19 19 19 18 18 19 20 20 20 20 20 20 20 20 19 19 18 18 18 17 17 17 17 17
19 19 19 19 19 19 19 18 18 17 17 16 17 18 19 19 18 18 18 18 19 19 20 20 20 20 20 19 19 19 19 18 18 18 17 17 17 17
19 19 19 19 19 19 18 18 17 17 16 15 16 17 17 17 17 16 16 16 17 18 18 19 19 19 19 19 19 19 19 19 18 18 18 17 17 17
18 19 19 19 18 18 18 18 17 16 15 15 15 15 15 15 15 15 15 14 15 16 17 17 18 18 19 19 19 19 19 19 19 18 18 18 18 18
18 18 18 18 18 18 18 18 18 17 16 15 14 14 15 15 15 15 14 13 14 16 16 15 16 17 18 19 19 20 19 19 19 19 19 19 19 19
18 18 18 19 19 19 18 18 18 18 18 17 16 16 16 17 17 16 15 15 15 17 16 15 15 16 17 19 20 20 20 20 20 20 21 21 20 20
18 18 19 19 19 19 19 18 18 19 19 19 19 19 19 20 20 18 17 16 16 18 18 16 15 16 17 19 20 20 21 21 21 22 22 22 22 21
17 18 19 19 19 19 19 18 18 18 19 20 20 21 21 22 22 20 18 16 16 17 19 18 17 16 17 19 20 21 21 21 22 22 22 22 22 22
16 17 18 19 20 20 19 18 18 18 18 19 19 20 21 22 22 22 20 18 16 17 19 19 18 17 17 18 20 20 21 21 22 22 22 22 21 21
15 16 17 19 20 20 19 19 18 18 18 18 18 19 20 21 22 22 22 21 19 20 21 22 20 19 18 18 19 19 20 21 21 21 21 21 21 21
15 15 17 19 19 20 19 19 19 18 18 17 17 18 19 21 22 23 23 23 22 22 24 24 22 21 19 18 18 19 20 20 20 21 21 21 20 20
15 16 17 18 19 19 19 19 18 18 17 17 17 18 19 21 22 22 23 23 23 23 24 24 24 22 21 19 18 19 19 20 20 21 20 20 20 20
16 16 16 17 18 18 18 18 18 17 17 16 17 18 19 20 21 21 21 21 21 21 23 24 24 24 22 21 20 19 20 20 21 21 20 19 19 19
16 16 16 15 15 15 16 17 17 17 16 16 17 18 19 19 20 20 20 20 19 19 21 22 23 23 22 21 20 20 20 21 21 21 20 19 18 18
17 16 15 14 14 14 15 16 16 16 16 17 17 17 18 18 18 19 19 18 18 18 19 20 21 20 20 20 20 21 21 21 21 21 20 18 17 17
16 16 15 14 13 14 15 16 16 17 17 17 17 17 17 17 17 17 17 17 17 17 18 19 19 18 17 16 18 20 21 21 20 20 20 19 18 18
15 15 15 14 14 15 16 16 17 17 17 17 18 18 18 18 17 17 17 17 16 16 16 17 18 18 17 16 17 19 21 21 20 19 19 19 19 18
15 15 14 14 14 15 16 16 16 16 17 18 18 18 18 18 18 18 17 17 17 16 16 17 18 19 19 18 17 17 19 20 21 20 20 19 18 17
14 14 13 13 14 15 15 15 15 16 17 17 17 18 18 18 18 18 18 18 17 17 17 17 18 19 19 18 17 17 17 19 19 20 20 20 18 17
13 13 13 13 13 14 15 15 15 16 16 17 17 17 18 18 18 18 18 18 18 17 17 17 18 18 18 18 17 17 17 18 18 19 19 20 19 19